This is the latest recevied weather packets stored in our database for station/object HB9CYX-13. If no packets are shown the sender has not sent any weather packets the latest 10 day(s).
| Time | Temp. | Humidity | Pressure | Rain* | Wind** | Luminosity | Snow |
|---|---|---|---|---|---|---|---|
| 1777445241 | 13.33° C | 65% | 1019.4 hPa | 0.25 mm | - | - | - |
| 1777444494 | 12.78° C | 68% | 1019.7 hPa | 0.25 mm | - | - | - |
| 1777443745 | 12.22° C | 71% | 1019.8 hPa | 0.25 mm | - | - | - |
| 1777442998 | 11.67° C | 69% | 1019.6 hPa | 0.25 mm | - | - | - |
| 1777442249 | 11.67° C | 68% | 1019.5 hPa | 0 mm | - | - | - |
| 1777441502 | 11.67° C | 70% | 1019.5 hPa | 0 mm | - | - | - |
| 1777440749 | 11.67° C | 70% | 1019.4 hPa | 0 mm | - | - | - |
| 1777440002 | 11.67° C | 74% | 1019.4 hPa | 0 mm | - | - | - |
| 1777439256 | 11.67° C | 78% | 1019.3 hPa | 0 mm | - | - | - |
| 1777438509 | 11.67° C | 79% | 1019.2 hPa | 0 mm | - | - | - |
| 1777437763 | 11.67° C | 79% | 1019.2 hPa | 0 mm | - | - | - |
| 1777437016 | 11.67° C | 77% | 1019 hPa | 0 mm | - | - | - |
| 1777436269 | 11.67° C | 76% | 1018.9 hPa | 0 mm | - | - | - |
| 1777435519 | 11.67° C | 77% | 1018.9 hPa | 0 mm | - | - | - |
| 1777434771 | 11.67° C | 78% | 1018.8 hPa | 0 mm | - | - | - |
| 1777434024 | 11.67° C | 80% | 1018.6 hPa | 0 mm | - | - | - |
| 1777433278 | 11.67° C | 80% | 1018.6 hPa | 0 mm | - | - | - |
| 1777432531 | 11.67° C | 80% | 1018.5 hPa | 0 mm | - | - | - |
| 1777431785 | 11.67° C | 79% | 1018.4 hPa | 0 mm | - | - | - |
| 1777431038 | 12.22° C | 79% | 1018.3 hPa | 0 mm | - | - | - |
| 1777430289 | 12.22° C | 77% | 1018.3 hPa | 0 mm | - | - | - |
| 1777429541 | 12.22° C | 77% | 1018.3 hPa | 0 mm | - | - | - |
| 1777428792 | 12.22° C | 76% | 1018.1 hPa | 0 mm | - | - | - |
| 1777428045 | 12.22° C | 76% | 1018.1 hPa | 0 mm | - | - | - |
| 1777427298 | 12.22° C | 75% | 1018 hPa | 0 mm | - | - | - |
* Rain latest hour (hover to see other rain measurements)
** Current wind speed in m/s (hover to see current wind gust speed)